Location: Moscow Pond
(43.6842°N, 73.2366°W)
Time: 21:30:50
(UTC+00:00)

Cosmos 1703 Rocket - Pass Details

Date: 08 November 2025
Orbit: 599 x 625 km, 82.5° (Epoch: 10 December)

Event Time Altitude Azimuth Distance (km) Brightness Sun altitude
Rises 10:00:34 0° 196° (SSW) 2,849 6.9 -17.9°
Reaches altitude 10° 10:02:47 10° 199° (SSW) 1,954 6.0 -17.5°
Maximum altitude 10:07:04 61° 280° (W) 698 3.5 -16.7°
Drops below altitude 10° 10:11:25 10° 2° (N) 1,987 6.1 -15.9°
Sets 10:13:42 0° 6° (N) 2,901 7.0 -15.5°
